User: anonymous   Login
Location: Unspecified
(0.0000°N, 0.0000°E)
Time: 22:41:46
(UTC+00:00)
Language:

SERT 2 - Orbit

View from above orbital plane
View from above orbital plane
View from above satellite
View from above satellite

Ground track
Ground track

The orbit data is extracted from the following two-line orbital elements,

1  4327U 70009A   18174.91265397 -.00000035 +00000-0 +86001-5 0  9994
2  4327 099.2880 254.0861 0005191 163.3038 265.0074 13.58478439397555
Epoch (UTC): 23 June 2018 21:54:13
Eccentricity: 0.0005191
inclination: 99.2880°
perigee height: 1037 km
apogee height: 1045 km
right ascension of ascending node: 254.0861°
argument of perigee: 163.3038°
revolutions per day: 13.58478439
mean anomaly at epoch: 265.0074°
orbit number at epoch: 39755

The dashed part of the orbit path shows where the satellite is in the earth's shadow,  

DLR